STARLINK-1631 (46151 NORAD) Tracking and Keplerian Element Data

This shows tracking and keplerian element data for the satellite.

Feedback or suggestion? Click here.




ElementValue
Catalog46151
NameSTARLINK-1631
Epoch Orbit1650
Epoch Day333.25002315
Epoch Year2020
RAAN309.2194
Inclination53.0024
Eccentricity0.0001855
Argument of Perigee63.375
Mean Anonmoly92.8021
Mean Motion15.05569178
Decay Rate-4.833E-05
L11 46151U 20057AL 20333.25002315 -.00004833 00000-0 -31282-3 0 9999
L22 46151 53.0024 309.2194 0001855 63.3750 92.8021 15.05569178 16505

Live tracking and technical data element details for STARLINK-1631 (NORAD 46151). STARLINK-1631 can be tracked NOW for your location showing map with azimuth and elevation plus other details from your city location.

Track the satellite on the map from your city or location and see movement details for azimuth, elevation, latitude, longitude, range, height, and movement on the map or in text.







IsCatalogInMostPopularTable: catalog: 46151, numindb: 21
Update: records affected: 1



GetName: 46151 STARLINK-1631

Hit Count: updated at: Sun, 29 Nov 2020 10:35:19 GMT